This is the latest recevied weather packets stored in our database for station/object GW1496. If no packets are shown the sender has not sent any weather packets the latest 10 day(s).
| Time | Temp. | Humidity | Pressure | Rain* | Wind** | Luminosity | Snow |
|---|---|---|---|---|---|---|---|
| 1777590413 | 13.33° C | 46% | 1005 hPa | 0 mm | - | - | - |
| 1777588951 | 15° C | 43% | 1004 hPa | 0 mm | - | - | - |
| 1777584619 | 16.67° C | 37% | 1004 hPa | 0 mm | - | - | - |
| 1777583566 | 16.11° C | 37% | 1004 hPa | 0 mm | - | - | - |
| 1777573462 | 16.67° C | 35% | 1004 hPa | 0 mm | - | - | - |
| 1777573122 | 16.67° C | 37% | 1004 hPa | 0 mm | - | - | - |
| 1777568074 | 15° C | 43% | 1004 hPa | 0 mm | - | - | - |
| 1777564853 | 13.89° C | 45% | 1005 hPa | 0 mm | - | - | - |
| 1777564461 | 13.89° C | 46% | 1005 hPa | 0 mm | - | - | - |
| 1777555118 | 15° C | 50% | 1004 hPa | 0 mm | - | - | - |
| 1777554031 | 12.22° C | 54% | 1004 hPa | 0 mm | - | - | - |
| 1777552218 | 11.11° C | 64% | 1004 hPa | 0 mm | - | - | - |
| 1777547553 | 10.56° C | 91% | 1004 hPa | 0 mm | - | - | - |
| 1777543972 | 10.56° C | 91% | 1002 hPa | 0 mm | - | - | - |
| 1777541793 | 11.11° C | 89% | 1001 hPa | 0 mm | - | - | - |
| 1777541092 | 11.11° C | 89% | 1001 hPa | 0 mm | - | - | - |
| 1777539636 | 10.56° C | 93% | 1001 hPa | 0 mm | - | - | - |
| 1777533490 | 11.11° C | 94% | 1003 hPa | 0 mm | - | - | - |
| 1777533164 | 11.11° C | 94% | 1002 hPa | 0 mm | - | - | - |
| 1777529177 | 11.11° C | 94% | 1003 hPa | 0 mm | - | - | - |
| 1777525575 | 11.67° C | 94% | 1003 hPa | 0 mm | - | - | - |
| 1777523807 | 11.67° C | 94% | 1003 hPa | 0 mm | - | - | - |
| 1777522339 | 11.67° C | 94% | 1003 hPa | 0 mm | - | - | - |
| 1777519854 | 11.67° C | 94% | 1003 hPa | 26.67 mm | - | - | - |
| 1777518740 | 11.67° C | 93% | 1003 hPa | 26.67 mm | - | - | - |
* Rain since midnight (hover to see other rain measurements)
** Current wind speed in m/s (hover to see current wind gust speed)